Miscellaneous Local Product
Issued by NWS Hastings, NE

Home | Current Version | Previous Version | Graphics & Text | Print | Product List | Glossary On
Versions: 1 2 3 4 5 6 7 8 9 10 11 12 13 14 15 16 17 18 19 20 21 22 23 24 25 26 27 28 29 30 31 32 33 34 35 36 37 38 39 40 41 42 43 44 45 46 47 48 49 50
000
AXUS43 KGID 230202
MISGRI

GID CWA HOURLY WEATHER ROUNDUP
NATIONAL WEATHER SERVICE HASTINGS NE
900 PM CDT TUE JUL 22 2014

NOTE: "FAIR" INDICATES FEW OR NO CLOUDS BELOW 12,000 FEET WITH NO
SIGNIFICANT WEATHER AND/OR OBSTRUCTIONS TO VISIBILITY.

...SOUTH CENTRAL NEBRASKA...

CITY           SKY/WX    TMP DP  RH WIND       PRES   REMARKS
GRAND ISLAND   FAIR      78  70  76 NE9       30.16R
HASTINGS       FAIR      79  66  64 NE9       30.14S
KEARNEY        FAIR      79  66  65 NE9       30.17R
ORD            FAIR      75  65  70 NE5       30.18R
YORK           FAIR      77  72  83 N12       30.14S
AURORA         FAIR      78  70  75 NE13      30.15S
LEXINGTON      FAIR      80  67  63 NE10      30.17R
HOLDREGE       FAIR      78  67  68 E9        30.16R
HEBRON         FAIR      83  70  63 NE7       30.11R

...NEBRASKA PANHANDLE...

CITY           SKY/WX    TMP DP  RH WIND       PRES   REMARKS
CHADRON        FAIR      85  61  44 SE15      30.14S
ALLIANCE       FAIR      84  57  39 SE12      30.21S
SCOTTSBLUFF    FAIR      85  58  39 SE12      30.19S
SIDNEY         FAIR      84  57  39 SE9       30.26R

...WESTERN AND NORTH CENTRAL NEBRASKA...

CITY           SKY/WX    TMP DP  RH WIND       PRES   REMARKS
VALENTINE      FAIR      79  62  56 E7        30.20S
AINSWORTH      FAIR      73  64  72 E5        30.22S
ONEILL         FAIR      75  64  67 NE7       30.21R
BROKEN BOW     FAIR      78  67  68 NE8       30.20R
IMPERIAL       FAIR      83  62  49 E7        30.19R
NORTH PLATTE   FAIR      81  64  56 E14       30.18R
MCCOOK         FAIR      82  63  52 E12       30.16R

...EASTERN NEBRASKA...

CITY           SKY/WX    TMP DP  RH WIND       PRES   REMARKS
NORFOLK        FAIR      78  67  68 NE8       30.16S
SO SIOUX CITY  FAIR      78  64  61 NE6       30.14S
TEKAMAH        FAIR      78  67  68 N7        30.12S
COLUMBUS       FAIR      73  64  73 NE5       30.16S
ALBION         FAIR      75  67  76 N3        30.18R
OMAHA EPPLEY   MOCLDY    79  69  71 N7        30.11R
OFFUTT AFB     FAIR      80  71  75 N5        30.11R
MILLARD        FAIR      81  70  69 N5        30.11S
LINCOLN        FAIR      80  68  66 NE12      30.12R
NEBRASKA CITY  FAIR      80  70  71 N15G21    30.09S
BEATRICE       FAIR      79  70  74 N9        30.10R
FALLS CITY     FAIR      83  77  82 CALM      30.04S HX  92

...NORTHERN KANSAS...

CITY           SKY/WX    TMP DP  RH WIND       PRES   REMARKS
GOODLAND       FAIR      86  61  42 SE8       30.19R
HILL CITY      FAIR      88  71  57 NE14      30.11R HX  94
NORTON         CLEAR     82  63  51 NE13      30.13R
PHILLIPSBURG   CLEAR     88  68  51 NE10      30.10R HX  91
SMITH CENTER   CLEAR     84  72  65 NE14      30.11R
HAYS           FAIR      86  66  51 SE7       30.09S
RUSSELL        FAIR      86  70  58 S7        30.07R HX  90
CONCORDIA      FAIR      87  75  67 E8        30.07R HX  96
SALINA         FAIR      95  67  39 SW7       30.03S HX  99
TOPEKA         FAIR      91  77  63 N8        30.02R HX 104



USA.gov is the U.S. government's official web portal to all federal, state and local government web resources and services.